TimeEDT,TemperatureF,Dew PointF,Humidity,Sea Level PressureIn,VisibilityMPH,Wind Direction,Wind SpeedMPH,Gust SpeedMPH,PrecipitationIn,Events,Conditions,WindDirDegrees,DateUTC
12:52 AM,66.0,57.9,75,29.64,10.0,SSE,10.4,-,N/A,,Overcast,160,2013-09-22 04:52:00
1:52 AM,64.0,60.1,87,29.62,10.0,SE,9.2,-,0.00,Rain,Light Rain,140,2013-09-22 05:52:00
2:52 AM,63.0,61.0,93,29.58,10.0,SE,5.8,-,0.01,Rain,Light Rain,140,2013-09-22 06:52:00
3:52 AM,63.0,61.0,93,29.55,7.0,South,3.5,-,0.05,Rain,Light Rain,170,2013-09-22 07:52:00
4:41 AM,64.4,62.6,94,29.59,1.5,SW,3.5,-,0.14,Rain,Heavy Rain,220,2013-09-22 08:41:00
4:48 AM,64.4,62.6,94,29.59,1.2,South,10.4,-,0.21,Rain,Heavy Rain,180,2013-09-22 08:48:00
4:52 AM,64.0,62.1,93,29.58,2.0,SSW,4.6,-,0.22,Rain,Heavy Rain,200,2013-09-22 08:52:00
4:59 AM,62.6,60.8,94,29.59,4.0,Variable,4.6,-,0.02,Rain,Rain,0,2013-09-22 08:59:00
5:23 AM,62.6,60.8,94,29.59,6.0,Calm,Calm,-,0.05,Rain,Light Rain,0,2013-09-22 09:23:00
5:52 AM,62.1,59.0,90,29.59,4.0,Calm,Calm,-,0.09,Rain,Rain,0,2013-09-22 09:52:00
6:00 AM,60.8,59.0,94,29.59,4.0,Calm,Calm,-,0.01,Rain,Light Rain,0,2013-09-22 10:00:00
6:52 AM,60.1,59.0,96,29.60,4.0,Calm,Calm,-,0.09,Rain,Rain,0,2013-09-22 10:52:00
7:52 AM,59.0,57.9,96,29.60,10.0,ESE,3.5,-,0.03,,Overcast,110,2013-09-22 11:52:00
8:23 AM,60.8,57.2,88,29.62,10.0,WSW,3.5,-,N/A,,Mostly Cloudy,240,2013-09-22 12:23:00
8:52 AM,61.0,57.9,90,29.62,10.0,Calm,Calm,-,N/A,,Overcast,0,2013-09-22 12:52:00
9:08 AM,60.8,57.2,88,29.62,10.0,SSE,3.5,-,N/A,,Overcast,160,2013-09-22 13:08:00
9:52 AM,62.1,57.9,86,29.63,10.0,Variable,4.6,-,N/A,,Overcast,0,2013-09-22 13:52:00
10:23 AM,60.8,55.4,82,29.64,10.0,Variable,3.5,-,0.00,,Overcast,0,2013-09-22 14:23:00
10:52 AM,61.0,55.0,81,29.63,10.0,Variable,3.5,-,0.00,,Overcast,0,2013-09-22 14:52:00
11:08 AM,64.4,55.4,73,29.63,10.0,Variable,4.6,-,N/A,,Mostly Cloudy,0,2013-09-22 15:08:00
11:52 AM,59.0,55.0,87,29.64,4.0,Variable,5.8,-,0.01,Rain,Light Rain,0,2013-09-22 15:52:00
12:52 PM,62.1,53.1,72,29.65,10.0,Variable,4.6,-,0.01,,Mostly Cloudy,0,2013-09-22 16:52:00
1:52 PM,64.0,53.1,67,29.65,10.0,West,8.1,-,N/A,,Partly Cloudy,280,2013-09-22 17:52:00
2:52 PM,60.1,51.1,72,29.67,10.0,Variable,3.5,-,N/A,,Overcast,0,2013-09-22 18:52:00
3:52 PM,61.0,50.0,67,29.68,10.0,NW,9.2,-,0.00,,Overcast,310,2013-09-22 19:52:00
4:30 PM,59.0,48.2,67,29.70,10.0,NW,8.1,-,N/A,,Overcast,320,2013-09-22 20:30:00
4:52 PM,57.0,46.9,69,29.71,10.0,WNW,6.9,16.1,N/A,,Overcast,300,2013-09-22 20:52:00
5:52 PM,55.0,45.0,69,29.73,10.0,Calm,Calm,-,N/A,,Overcast,0,2013-09-22 21:52:00
6:07 PM,55.4,44.6,67,29.73,10.0,Calm,Calm,-,N/A,,Overcast,0,2013-09-22 22:07:00
6:40 PM,53.6,44.6,72,29.74,10.0,Variable,5.8,-,N/A,,Overcast,0,2013-09-22 22:40:00
6:49 PM,53.6,44.6,72,29.75,10.0,West,9.2,-,N/A,,Overcast,280,2013-09-22 22:49:00
6:52 PM,52.0,44.1,74,29.75,10.0,Variable,3.5,-,N/A,,Overcast,0,2013-09-22 22:52:00
7:52 PM,51.1,44.1,77,29.78,10.0,Variable,4.6,-,N/A,,Overcast,0,2013-09-22 23:52:00
8:43 PM,51.8,44.6,76,29.78,10.0,WNW,4.6,-,N/A,,Overcast,300,2013-09-23 00:43:00
8:52 PM,50.0,44.1,80,29.79,10.0,Variable,5.8,-,N/A,,Overcast,0,2013-09-23 00:52:00
9:04 PM,50.0,42.8,76,29.79,10.0,Variable,5.8,-,N/A,,Mostly Cloudy,0,2013-09-23 01:04:00
9:52 PM,48.9,41.0,74,29.81,10.0,NW,3.5,-,N/A,,Partly Cloudy,310,2013-09-23 01:52:00
10:52 PM,48.0,41.0,77,29.81,10.0,Calm,Calm,-,N/A,,Mostly Cloudy,0,2013-09-23 02:52:00
11:16 PM,48.2,42.8,82,29.81,10.0,Calm,Calm,-,N/A,,Overcast,0,2013-09-23 03:16:00
11:52 PM,48.0,42.1,80,29.82,10.0,Calm,Calm,-,N/A,,Overcast,0,2013-09-23 03:52:00